Temp
9 9 9 8 8 8 9 9 8 6 5 4 4 5 4 4 4 3 3 3 2 2
9 9 8 8 8 8 8 7 6 5 4 4 4 3 2 4 3 3 3 2 2 1
8 8 7 7 7 7 6 5 5 4 4 2 2 3 3 3 3 3 2 2 1 -0
7 7 7 6 6 6 5 5 4 4 3 3 4 3 3 3 3 2 1 0 -1 -1
7 6 5 5 4 4 4 5 5 4 3 3 3 3 3 3 2 2 0 -0 -1 -1
6 5 5 4 3 4 3 3 3 3 3 3 3 3 3 3 2 0 -0 -1 -1 -2
5 4 4 3 3 2 2 2 2 2 3 3 3 2 2 1 0 -0 -1 -2 -3 -3
5 4 4 3 2 2 1 2 2 2 3 3 2 2 1 -0 -1 -2 -2 -3 -4 -5
4 4 3 3 2 1 2 2 2 2 2 2 1 -0 -1 -2 -2 -3 -4 -5 -6 -7
4 3 3 2 2 2 2 2 1 1 0 0 -0 -1 -2 -3 -4 -5 -6 -7 -7 -8
3 3 2 1 2 2 2 1 1 0 -1 -1 -1 -3 -3 -4 -6 -7 -8 -8 -8 -9
3 3 2 1 2 2 1 1 0 -0 -1 -2 -3 -4 -5 -6 -7 -8 -8 -8 -9 -9
3 3 2 1 2 2 1 1 -0 -1 -2 -3 -4 -5 -6 -7 -8 -8 -8 -9 -9 -9
3 2 2 1 1 1 0 -1 -2 -2 -3 -4 -4 -5 -7 -8 -8 -8 -8 -9 -9 -9
Height
857 856 855 852 849 845 841 839 836 835 835 833 834 834 834 834 834 834 832 830 828 827
855 853 851 848 844 840 836 833 832 833 833 835 833 835 835 834 831 830 828 827 825 824
853 852 849 844 840 835 832 831 832 833 833 835 833 831 830 829 828 827 825 824 822 821
853 850 846 842 838 834 830 830 829 828 829 830 829 828 828 827 825 824 822 820 819 818
851 848 844 840 836 832 829 829 828 828 828 827 826 825 825 824 822 820 818 817 815 813
848 845 842 838 835 832 830 829 828 826 824 823 823 822 821 820 818 817 815 813 811 809
845 842 838 835 832 831 830 827 824 822 821 820 820 819 818 816 815 814 812 810 808 805
841 838 836 833 830 827 826 824 822 819 818 818 817 816 815 814 813 811 808 806 804 801
839 836 832 830 827 825 823 822 819 818 816 815 815 814 813 811 810 808 805 802 800 797
836 833 830 827 824 822 821 820 817 815 815 813 813 813 811 809 807 804 802 800 797 793
833 830 827 824 821 819 818 816 815 813 814 812 811 811 809 806 804 802 800 797 794 791
829 826 823 821 818 815 813 812 811 812 811 810 810 809 807 805 803 801 798 795 792 789
825 823 820 817 815 813 811 809 809 809 809 809 809 807 806 804 802 799 796 792 789 786
820 819 817 814 812 809 808 808 808 808 808 808 807 806 805 803 800 797 794 791 787 784
Wind_Speed
13 13 15 17 22 25 25 24 19 10 7 6 8 9 6 6 7 7 10 10 11 10
18 19 21 22 24 25 24 20 9 9 2 13 6 8 11 12 10 10 12 12 12 13
20 21 22 24 26 25 18 7 7 2 6 4 5 11 14 12 12 14 13 12 12 11
17 19 22 24 23 20 12 7 10 10 12 8 12 12 12 13 14 15 13 10 10 12
14 17 20 22 20 17 8 10 11 10 11 17 13 10 11 13 14 13 12 11 12 17
14 17 19 20 19 16 12 8 12 17 12 9 11 11 11 13 13 12 11 14 19 21
15 17 20 20 18 17 18 18 13 11 11 11 12 12 11 11 10 12 16 19 20 20
16 18 20 21 18 17 16 14 15 15 8 11 11 10 8 9 13 17 20 21 22 22
17 19 22 22 19 17 12 12 10 10 12 9 3 5 7 11 16 20 19 22 20 21
17 20 23 20 17 15 14 17 15 17 8 1 5 9 11 14 17 17 17 17 21 21
17 21 24 20 18 18 18 17 13 9 2 4 7 10 14 16 16 17 19 18 17 19
17 22 23 19 18 18 16 13 6 4 3 5 7 11 12 12 15 16 17 16 18 15
17 22 20 17 16 12 7 7 8 6 2 3 7 10 11 10 12 14 17 20 17 15
19 20 17 16 14 14 10 8 7 4 2 4 7 9 9 9 11 14 16 18 19 18
Wind_Direction
19 357 343 331 321 318 315 307 295 212 188 176 320 331 313 320 313 314 328 313 303 303
19 6 352 339 328 322 318 304 241 187 183 320 8 331 326 284 289 292 297 292 293 287
5 358 353 347 341 328 316 277 206 183 330 0 305 305 278 278 297 288 291 295 286 284
3 358 352 348 345 336 305 231 201 230 271 274 289 292 283 298 296 297 290 283 288 299
355 353 351 347 346 341 274 246 266 261 294 299 293 285 290 294 293 288 286 292 298 309
353 348 345 342 340 330 300 285 289 299 289 293 285 284 289 294 287 285 296 305 310 310
346 342 342 340 328 312 300 305 312 297 307 291 291 283 286 290 302 309 306 307 307 304
340 340 338 332 324 315 310 300 307 309 307 303 300 295 318 321 316 312 309 309 310 307
332 332 333 328 324 311 314 317 320 326 320 312 310 322 317 315 311 314 314 313 314 314
318 325 325 321 317 315 307 316 301 328 313 281 341 336 330 324 323 322 322 321 318 320
310 318 319 315 311 309 302 302 287 286 249 339 338 337 334 334 331 328 327 327 327 322
304 315 319 313 312 310 295 287 251 219 261 322 344 342 341 334 326 328 332 332 332 329
302 311 310 307 303 307 289 248 201 193 236 329 347 345 344 341 329 331 332 334 333 333
296 305 301 300 297 289 272 208 196 201 249 323 340 348 350 345 334 334 329 330 333 335